RH
16 16 15 12 9 5 3 2 2 2 2 3 4 3 2 3 3 3 3 4 3 3 3 3 3 4 4 5 4 3 4 5 6
16 14 11 7 4 2 2 2 2 2 4 4 3 3 3 3 3 4 4 4 4 3 4 4 4 6 7 7 4 4 5 5 6
14 10 6 4 2 2 2 2 3 4 4 3 3 3 3 3 5 6 6 6 4 5 5 5 8 10 9 8 6 6 6 6 6
10 6 4 3 2 3 3 3 4 4 4 3 3 3 4 6 9 9 7 6 5 8 7 9 11 12 12 11 8 8 8 6 7
10 6 4 2 2 3 3 3 4 4 3 3 3 4 8 11 11 11 8 5 8 10 10 11 13 13 14 15 14 13 11 10 9
8 6 4 3 3 3 3 4 4 3 3 3 4 7 11 13 14 14 11 7 10 12 13 14 16 15 16 18 19 20 21 18 14
8 6 5 3 3 3 3 3 4 3 3 4 5 9 13 16 17 18 14 11 11 14 16 18 21 22 20 20 22 24 26 24 22
9 7 5 4 3 3 4 3 4 4 4 4 5 9 13 17 20 22 23 20 16 16 18 20 22 25 29 31 29 29 31 32 30
8 6 5 4 4 4 4 4 4 4 7 6 6 8 12 16 20 23 24 26 30 29 26 24 24 25 27 29 33 37 38 38 39
8 7 6 5 4 4 4 4 4 4 4 9 14 12 11 13 17 21 28 32 33 32 35 38 38 34 31 30 30 32 36 41 45
9 9 7 6 6 6 6 6 7 6 6 6 8 13 21 24 21 22 29 37 39 39 39 41 44 43 44 45 42 37 36 39 47
11 12 8 6 7 7 8 9 10 10 9 8 8 10 18 30 42 48 48 49 44 42 42 45 53 57 54 46 47 54 57 47 47
14 15 14 13 11 10 11 13 15 13 13 14 14 14 15 17 18 19 19 18 14 12 13 16 21 35 51 60 61 59 56 60 74
15 14 14 14 13 12 14 18 17 19 20 22 22 20 14 13 13 13 13 14 18 22 19 26 32 35 34 35 40 46 68 70 65
16 16 14 13 13 15 20 24 29 23 23 25 28 27 25 20 19 21 27 30 22 21 23 27 32 32 36 49 70 70 66 65 63
20 18 16 15 14 15 26 34 29 30 37 33 30 25 18 21 23 28 27 17 16 18 27 32 26 32 35 35 38 47 48 58 93
23 21 22 24 24 23 26 32 45 37 31 35 35 21 22 18 12 11 11 13 17 22 25 25 33 42 42 41 47 66 82 84 83
27 27 29 34 43 43 50 59 43 34 41 39 22 13 15 13 12 11 11 11 14 17 19 30 22 20 25 30 38 49 50 34 47
68 46 55 63 76 83 84 76 79 60 32 19 14 13 11 10 9 10 11 14 16 19 14 10 14 18 14 12 10 12 13 23 69
81 84 90 95 92 98 96 93 89 61 48 14 12 12 11 10 7 5 9 16 18 13 10 11 12 12 8 6 10 12 11 13 40
Wind_Speed
8 8 10 11 11 13 14 12 12 13 13 14 15 16 15 15 14 14 14 14 14 15 15 15 15 15 15 16 17 17 16 17 17
9 10 11 12 12 13 13 13 13 13 14 15 15 15 14 13 13 14 15 15 15 14 13 13 13 13 15 17 17 16 16 16 16
11 11 11 12 13 13 13 13 14 14 15 16 16 14 14 13 14 15 15 15 13 12 12 11 12 14 15 15 16 16 16 16 15
11 12 11 12 13 12 13 14 15 15 15 16 15 14 14 15 16 16 16 15 14 13 14 14 14 14 14 15 15 16 16 17 16
13 13 12 12 12 13 14 14 15 15 15 15 14 15 16 17 17 16 16 15 15 16 16 15 15 16 16 16 16 16 15 16 16
14 14 14 13 12 13 14 14 15 17 16 15 14 16 18 18 19 18 18 17 17 18 18 18 17 18 19 18 18 18 19 17 17
16 16 16 14 14 14 15 15 16 17 18 17 16 16 18 19 19 19 19 20 20 21 21 21 20 21 21 21 21 22 21 22 21
18 16 16 16 15 15 16 16 17 17 18 19 19 19 20 20 21 21 22 22 22 22 23 24 24 25 24 25 26 25 25 25 24
19 18 17 17 16 17 16 17 18 18 18 20 21 22 22 23 23 24 25 25 25 25 26 27 28 28 28 28 29 29 30 30 29
20 20 19 18 18 18 17 18 19 20 20 21 22 24 24 25 26 27 28 28 29 29 29 30 31 31 31 32 33 34 34 34 33
22 21 21 20 19 18 18 20 21 21 22 22 23 25 26 27 28 29 30 32 33 33 34 34 34 34 36 36 37 38 38 38 37
23 22 22 20 19 19 19 21 22 23 24 25 25 26 26 27 28 31 34 35 37 37 37 37 37 38 39 40 41 41 42 42 40
24 24 24 22 22 22 21 23 23 24 25 26 26 27 28 29 30 32 34 36 37 38 39 40 40 42 43 43 43 43 43 44 44
26 26 25 24 24 24 24 24 25 26 27 28 28 28 29 30 32 34 36 38 39 40 40 40 40 41 42 43 44 45 45 46 45
28 28 28 26 26 26 26 26 27 29 29 29 30 30 31 31 35 37 38 39 41 41 41 41 41 42 43 44 45 46 45 45 47
30 31 30 29 28 28 28 29 30 31 32 31 32 31 32 33 36 37 39 41 42 42 42 42 43 42 43 45 46 47 48 47 46
35 33 31 30 30 30 31 31 32 33 34 34 34 33 32 36 38 39 40 42 43 44 43 43 43 43 44 46 47 48 50 51 51
36 33 33 32 32 32 32 33 35 35 35 36 37 37 36 37 38 40 41 43 44 42 41 41 42 44 46 47 49 51 52 54 56
38 36 35 34 36 35 36 38 37 38 37 38 39 40 41 42 41 40 40 40 41 40 40 40 41 45 49 52 49 51 54 54 48
38 39 38 38 38 39 38 35 37 40 39 41 42 43 44 44 45 42 39 38 37 38 38 40 43 47 50 45 49 47 48 47 47
Wind_Direction
293 303 301 301 306 301 298 301 306 309 311 313 312 311 308 309 313 320 321 323 326 327 328 331 333 336 339 338 336 333 332 329 328
290 293 297 301 304 298 298 304 309 310 311 309 306 306 307 307 317 320 323 325 326 325 326 331 336 340 338 336 335 335 333 330 328
283 290 294 302 299 298 304 309 310 309 308 306 307 305 305 316 320 320 320 321 321 319 320 327 332 331 333 333 331 331 329 328 327
287 290 297 296 295 303 306 311 308 308 308 307 305 306 312 315 317 318 320 319 314 317 320 321 322 323 325 325 327 327 327 326 324
285 293 293 291 297 301 305 307 307 308 307 304 303 307 309 314 317 317 314 310 307 311 311 313 314 315 316 318 318 317 318 318 316
286 290 290 293 296 300 307 309 310 309 305 301 301 302 307 311 314 313 309 304 306 308 310 310 313 312 311 311 310 309 309 309 309
281 287 293 296 298 303 304 308 309 305 304 299 295 298 303 307 309 307 304 302 302 304 306 308 309 308 307 305 304 305 304 303 304
277 284 289 291 296 297 301 306 307 307 304 299 295 295 297 299 301 300 298 296 297 299 302 304 304 304 304 304 302 301 300 299 299
279 283 283 287 291 292 298 303 304 305 301 294 291 291 293 295 297 297 296 295 296 296 296 298 299 299 301 301 300 298 297 297 297
272 278 282 286 288 292 297 299 301 302 301 294 292 292 293 294 296 297 298 298 299 298 296 296 295 296 297 297 297 297 297 295 294
269 274 277 281 282 285 291 295 297 299 298 297 295 293 293 294 294 296 297 298 298 297 296 296 295 295 295 294 294 294 293 293 293
266 271 274 276 278 280 283 289 292 297 297 298 298 297 296 294 293 294 294 294 294 295 296 297 295 294 293 294 293 293 293 294 294
268 272 276 279 278 280 284 289 293 295 296 297 297 295 295 296 297 294 294 295 297 298 299 298 296 293 293 293 293 293 293 293 292
269 273 276 276 277 281 285 286 289 291 291 293 294 294 296 298 295 295 297 298 298 298 298 298 297 297 297 296 294 293 293 294 294
270 273 273 275 277 279 282 284 287 289 290 291 292 294 297 298 296 297 298 297 296 298 299 299 300 301 301 299 297 297 296 293 292
267 268 271 275 278 279 279 282 286 286 289 291 291 296 298 299 297 298 297 297 298 299 298 299 300 300 299 300 299 298 297 293 289
261 267 273 275 274 275 278 281 281 284 285 288 289 292 295 295 298 298 297 296 296 296 297 298 299 299 299 299 298 297 296 296 292
265 269 270 271 272 274 274 275 278 281 285 286 290 289 292 294 296 296 294 294 294 294 296 297 299 300 300 301 301 299 298 299 295
261 263 266 270 271 270 268 271 277 282 284 287 289 292 293 295 293 291 291 290 291 296 297 300 302 303 304 305 305 304 304 301 297
255 257 260 263 264 264 267 274 278 281 285 288 291 294 296 295 294 296 293 292 293 295 297 300 302 305 306 307 307 305 307 310 301